CW3157 Weather Reports


Display with metric or nautical units.
time (UTC)temp
F
wind
direction
speed
MPH
gust
MPH
rain 1hr
in
rain 24hr
in
rain mn
in
humidity
%
barometer
mb
20260505121813 64 233 4.0 9.0 0.00 0.00 0.00 62 1010.8
20260505121313 64 201 3.0 9.0 0.00 0.00 0.00 61 1010.8
20260505120313 64 303 4.0 9.0 0.00 0.00 0.00 63 1010.8
20260505115813 63 238 1.0 9.0 0.00 0.00 0.00 65 1010.7
20260505115313 63 253 1.0 7.0 0.00 0.00 0.00 62 1010.8
20260505114813 63 248 3.0 5.0 0.00 0.00 0.00 65 1010.6
20260505114313 62 197 2.0 5.0 0.00 0.00 0.00 65 1010.6
20260505113813 61 200 3.0 7.0 0.00 0.00 0.00 71 1010.7
20260505113313 59 264 0.0 7.0 0.00 0.00 0.00 75 1010.6
20260505112313 57 194 0.0 3.0 0.00 0.00 0.00 78 1010.5
20260505111813 57 194 2.0 2.0 0.00 0.00 0.00 80 1010.4
20260505111313 56 194 0.0 1.0 0.00 0.00 0.00 82 1010.3
20260505110813 55 194 0.0 2.0 0.00 0.00 0.00 82 1010.3
20260505110313 54 194 0.0 2.0 0.00 0.00 0.00 83 1010.2
20260505101813 49 292 1.0 3.0 0.00 0.00 0.00 85 1010.0
20260505101313 49 292 2.0 4.0 0.00 0.00 0.00 85 1009.9
20260505100813 50 292 3.0 4.0 0.00 0.00 0.00 85 1009.9
20260505100313 49 292 0.0 3.0 0.00 0.00 0.00 85 1009.9
20260505095313 50 292 1.0 2.0 0.00 0.00 0.00 85 1009.9
20260505094813 50 292 0.0 2.0 0.00 0.00 0.00 84 1010.0
20260505094313 50 292 2.0 2.0 0.00 0.00 0.00 84 1010.0
20260505093813 51 292 0.0 2.0 0.00 0.00 0.00 84 1009.9
20260505093313 51 292 1.0 2.0 0.00 0.00 0.00 84 1010.0
20260505092813 51 292 0.0 0.0 0.00 0.00 0.00 84 1010.0
20260505092313 51 292 0.0 2.0 0.00 0.00 0.00 84 1010.0
20260505091813 52 292 0.0 2.0 0.00 0.00 0.00 84 1010.0
20260505090813 53 292 2.0 3.0 0.00 0.00 0.00 82 1010.0
20260505090313 53 292 1.0 1.0 0.00 0.00 0.00 83 1010.0
20260505085813 53 292 0.0 3.0 0.00 0.00 0.00 81 1009.9
20260505085313 53 292 0.0 3.0 0.00 0.00 0.00 82 1010.0
20260505084813 54 292 0.0 3.0 0.00 0.00 0.00 80 1009.9
20260505083813 54 292 0.0 3.0 0.00 0.00 0.00 79 1009.8
20260505083313 53 292 2.0 2.0 0.00 0.00 0.00 79 1009.8
20260505082313 54 292 0.0 2.0 0.00 0.00 0.00 79 1009.8
20260505081813 53 292 2.0 2.0 0.00 0.00 0.00 79 1009.8
20260505081313 53 292 0.0 2.0 0.00 0.00 0.00 79 1009.8
20260505080813 54 292 1.0 3.0 0.00 0.00 0.00 79 1009.7
20260505080313 54 292 1.0 3.0 0.00 0.00 0.00 77 1009.7
20260505075813 54 292 2.0 3.0 0.00 0.00 0.00 78 1009.9
20260505075313 54 292 2.0 2.0 0.00 0.00 0.00 78 1009.8
20260505074813 55 292 0.0 2.0 0.00 0.00 0.00 76 1009.8
20260505073313 55 292 1.0 2.0 0.00 0.00 0.00 77 1010.0
20260505072813 55 292 0.0 2.0 0.00 0.00 0.00 75 1010.0
20260505072313 55 292 1.0 2.0 0.00 0.00 0.00 76 1010.0
20260505071313 55 292 0.0 3.0 0.00 0.00 0.00 75 1010.0
20260505070813 55 292 2.0 3.0 0.00 0.00 0.00 75 1010.0
20260505070313 55 292 0.0 3.0 0.00 0.00 0.00 76 1010.1
20260505065813 54 292 1.0 3.0 0.00 0.00 0.00 76 1010.1
20260505065313 54 292 1.0 3.0 0.00 0.00 0.00 75 1010.0
20260505064813 55 292 1.0 2.0 0.00 0.00 0.00 73 1010.0
20260505064313 55 292 0.0 2.0 0.00 0.00 0.00 72 1010.0
20260505063813 55 292 1.0 3.0 0.00 0.00 0.00 72 1010.1
20260505063313 55 292 0.0 3.0 0.00 0.00 0.00 72 1010.1
20260505062813 55 292 0.0 3.0 0.00 0.00 0.00 72 1010.1
20260505062313 55 224 0.0 4.0 0.00 0.00 0.00 70 1010.1
20260505061813 55 224 1.0 4.0 0.00 0.00 0.00 68 1010.1
20260505061313 55 248 0.0 4.0 0.00 0.00 0.00 68 1010.1
20260505060813 55 248 3.0 6.0 0.00 0.00 0.00 68 1010.0
20260505060313 54 247 2.0 6.0 0.00 0.00 0.00 69 1010.1
20260505055813 54 272 2.0 3.0 0.00 0.00 0.00 69 1010.0
20260505055313 54 272 0.0 3.0 0.00 0.00 0.00 67 1010.1
20260505054813 55 272 2.0 4.0 0.00 0.00 0.00 67 1010.0
20260505054313 54 227 0.0 4.0 0.00 0.00 0.00 68 1010.1
20260505053813 54 67 1.0 6.0 0.00 0.00 0.00 67 1010.1
20260505052813 54 246 1.0 4.0 0.00 0.00 0.00 67 1010.0
20260505052313 56 246 1.0 4.0 0.00 0.00 0.00 64 1010.0
20260505051813 56 248 3.0 4.0 0.00 0.00 0.00 64 1010.0
20260505050813 55 156 3.0 5.0 0.00 0.00 0.00 66 1010.0
20260505050313 54 147 1.0 4.0 0.00 0.00 0.00 67 1010.1
20260505041313 54 186 2.0 4.0 0.00 0.00 0.00 67 1010.0
20260505040813 54 194 0.0 6.0 0.00 0.00 0.00 67 1010.1
20260505040313 53 194 3.0 6.0 0.00 0.00 0.00 70 1010.0
20260505035813 53 194 2.0 3.0 0.00 0.00 0.00 70 1009.9
20260505035313 53 194 2.0 4.0 0.00 0.00 0.00 71 1009.9
20260505034813 53 194 2.0 4.0 0.00 0.00 0.00 70 1009.9
20260505034313 53 96 0.0 2.0 0.00 0.00 0.00 69 1009.8
20260505033813 53 96 0.0 3.0 0.00 0.00 0.00 68 1009.8
20260505033313 53 96 1.0 3.0 0.00 0.00 0.00 69 1009.7
20260505032813 53 100 0.0 2.0 0.00 0.00 0.00 68 1009.8
20260505032313 54 100 1.0 3.0 0.00 0.00 0.00 66 1009.8
20260505031813 54 96 2.0 3.0 0.00 0.00 0.00 66 1009.9
20260505031313 55 96 0.0 3.0 0.00 0.00 0.00 63 1009.8
20260505030813 55 96 2.0 3.0 0.00 0.00 0.00 65 1009.8
20260505030313 56 123 1.0 3.0 0.00 0.00 0.00 63 1009.9
20260505025813 56 123 0.0 4.0 0.00 0.00 0.00 62 1009.9
20260505025313 56 129 0.0 4.0 0.00 0.00 0.00 64 1009.9
20260505023813 60 253 0.0 4.0 0.00 0.00 0.00 54 1009.9
20260505023313 57 258 1.0 3.0 0.00 0.00 0.00 59 1009.9
20260505022813 57 259 0.0 6.0 0.00 0.00 0.00 62 1010.1
20260505022313 57 259 0.0 6.0 0.00 0.00 0.00 61 1010.2
20260505021313 56 223 0.0 5.0 0.00 0.00 0.00 62 1010.2
20260505020813 56 223 0.0 5.0 0.00 0.00 0.00 63 1010.2
20260505020313 56 205 0.0 2.0 0.00 0.00 0.00 61 1010.3
20260505015813 56 205 0.0 3.0 0.00 0.00 0.00 62 1010.3
20260505015313 57 205 1.0 5.0 0.00 0.00 0.00 62 1010.2
20260505014813 57 205 2.0 5.0 0.00 0.00 0.00 61 1010.1
20260505014313 57 221 3.0 3.0 0.00 0.00 0.00 61 1010.1
20260505013813 58 252 1.0 3.0 0.00 0.00 0.00 59 1010.1
20260505013313 59 252 0.0 7.0 0.00 0.00 0.00 56 1010.1
20260505012813 58 252 3.0 7.0 0.00 0.00 0.00 60 1010.0
20260505012313 58 256 0.0 3.0 0.00 0.00 0.00 59 1010.0
20260505011813 59 256 2.0 5.0 0.00 0.00 0.00 56 1010.0
20260505011313 58 256 1.0 5.0 0.00 0.00 0.00 57 1009.8
20260505010813 58 244 1.0 4.0 0.00 0.00 0.00 58 1009.8
20260505010313 57 244 0.0 4.0 0.00 0.00 0.00 59 1009.7
20260505005313 59 212 1.0 5.0 0.00 0.00 0.00 57 1009.6
20260505004813 59 265 1.0 3.0 0.00 0.00 0.00 55 1009.5
20260505004313 60 265 1.0 3.0 0.00 0.00 0.00 54 1009.6
20260505003313 61 265 1.0 4.0 0.00 0.00 0.00 51 1009.5
20260505002813 62 240 1.0 6.0 0.00 0.00 0.00 49 1009.5
20260505002313 62 223 0.0 6.0 0.00 0.00 0.00 49 1009.5
20260505001813 60 227 6.0 6.0 0.00 0.00 0.00 52 1009.5
20260505000813 61 244 1.0 2.0 0.00 0.00 0.00 52 1009.3
20260504235313 63 250 4.0 6.0 0.00 0.00 0.00 47 1009.3
20260504234313 64 202 1.0 4.0 0.00 0.00 0.00 47 1009.3
20260504233813 64 288 0.0 6.0 0.00 0.00 0.00 47 1009.2
20260504233313 64 90 2.0 6.0 0.00 0.00 0.00 43 1009.2
20260504232813 66 213 0.0 5.0 0.00 0.00 0.00 42 1009.2
20260504232313 66 213 1.0 7.0 0.00 0.00 0.00 42 1009.1
20260504231313 67 209 4.0 15.0 0.00 0.00 0.00 41 1009.2
20260504230813 67 186 5.0 6.0 0.00 0.00 0.00 43 1009.2
20260504230313 67 213 0.0 4.0 0.00 0.00 0.00 43 1009.1
20260504225813 67 255 1.0 5.0 0.00 0.00 0.00 40 1009.2
20260504225313 67 198 4.0 8.0 0.00 0.00 0.00 42 1008.8
20260504224313 68 214 2.0 6.0 0.00 0.00 0.00 38 1008.8
20260504223813 68 274 1.0 6.0 0.00 0.00 0.00 39 1008.8
20260504223313 68 244 1.0 7.0 0.00 0.00 0.00 39 1008.7
20260504222313 68 186 2.0 11.0 0.00 0.00 0.00 39 1008.7
20260504221813 68 242 1.0 9.0 0.00 0.00 0.00 41 1008.8
20260504221313 69 248 3.0 19.0 0.00 0.00 0.00 38 1008.9
20260504220813 69 253 3.0 19.0 0.00 0.00 0.00 38 1008.8
20260504220313 70 261 6.0 9.0 0.00 0.00 0.00 40 1008.9
20260504215813 70 152 4.0 10.0 0.00 0.00 0.00 37 1008.8
20260504215313 70 215 6.0 10.0 0.00 0.00 0.00 37 1008.8
20260504213813 70 197 1.0 13.0 0.00 0.00 0.00 36 1008.7
20260504213313 71 258 1.0 8.0 0.00 0.00 0.00 39 1008.8
20260504212813 71 285 1.0 11.0 0.00 0.00 0.00 36 1008.9
20260504211813 72 259 1.0 10.0 0.00 0.00 0.00 36 1008.9
20260504211313 72 112 1.0 12.0 0.00 0.00 0.00 33 1008.8
20260504210813 72 260 4.0 12.0 0.00 0.00 0.00 33 1008.9
20260504210313 71 255 5.0 13.0 0.00 0.00 0.00 34 1008.9
20260504205813 72 225 7.0 13.0 0.00 0.00 0.00 33 1008.7
20260504205313 73 284 4.0 14.0 0.00 0.00 0.00 33 1008.9
20260504204812 72 275 6.0 14.0 0.00 0.00 0.00 34 1008.9
20260504204313 72 261 2.0 14.0 0.00 0.00 0.00 33 1009.0
20260504203812 73 236 3.0 17.0 0.00 0.00 0.00 41 1009.0
20260504203313 72 333 4.0 17.0 0.00 0.00 0.00 34 1009.0
20260504202813 72 235 2.0 15.0 0.00 0.00 0.00 35 1009.1
20260504202312 71 232 2.0 16.0 0.00 0.00 0.00 34 1009.1
20260504201813 72 273 4.0 16.0 0.00 0.00 0.00 38 1009.3
20260504201313 72 256 2.0 9.0 0.00 0.00 0.00 39 1009.2
20260504200813 72 249 3.0 12.0 0.00 0.00 0.00 35 1009.3
20260504195812 71 180 2.0 9.0 0.00 0.00 0.00 35 1009.3
20260504195312 72 290 2.0 12.0 0.00 0.00 0.00 34 1009.4
20260504194813 71 41 4.0 17.0 0.00 0.00 0.00 40 1009.4
20260504194313 69 272 4.0 17.0 0.00 0.00 0.00 37 1009.6
20260504193813 70 233 4.0 14.0 0.00 0.00 0.00 35 1009.5
20260504193312 72 207 14.0 16.0 0.00 0.00 0.00 37 1009.6
20260504192813 72 295 3.0 16.0 0.00 0.00 0.00 34 1009.7
20260504192312 71 241 9.0 15.0 0.00 0.00 0.00 35 1009.8
20260504191813 71 243 3.0 12.0 0.00 0.00 0.00 35 1009.8
20260504191313 71 274 1.0 13.0 0.00 0.00 0.00 33 1009.8
20260504190813 72 298 5.0 14.0 0.00 0.00 0.00 35 1009.9
20260504190313 71 348 2.0 14.0 0.00 0.00 0.00 36 1009.9
20260504185812 71 231 10.0 11.0 0.00 0.00 0.00 37 1010.0
20260504185313 71 197 1.0 12.0 0.00 0.00 0.00 36 1010.2
20260504184813 72 215 9.0 13.0 0.00 0.00 0.00 35 1010.3
20260504184313 71 232 2.0 13.0 0.00 0.00 0.00 36 1010.3
20260504183813 71 245 3.0 10.0 0.00 0.00 0.00 39 1010.3
20260504183312 70 185 4.0 13.0 0.00 0.00 0.00 36 1010.3
20260504182812 71 227 4.0 13.0 0.00 0.00 0.00 36 1010.5
20260504182312 72 273 3.0 12.0 0.00 0.00 0.00 35 1010.4
20260504181813 71 260 4.0 14.0 0.00 0.00 0.00 37 1010.6
20260504181313 71 255 8.0 14.0 0.00 0.00 0.00 38 1010.6
20260504180813 70 360 10.0 12.0 0.00 0.00 0.00 37 1010.7
20260504180313 70 267 4.0 12.0 0.00 0.00 0.00 35 1010.8
20260504175313 70 349 4.0 12.0 0.00 0.00 0.00 36 1010.9
20260504174813 70 182 10.0 12.0 0.00 0.00 0.00 38 1010.9
20260504174312 70 257 5.0 12.0 0.00 0.00 0.00 38 1011.0
20260504173313 70 225 4.0 14.0 0.00 0.00 0.00 35 1011.2
20260504172813 70 299 3.0 13.0 0.00 0.00 0.00 37 1011.3
20260504171812 70 338 9.0 15.0 0.00 0.00 0.00 39 1011.5
20260504171313 69 269 9.0 15.0 0.00 0.00 0.00 34 1011.6
20260504170812 69 237 15.0 15.0 0.00 0.00 0.00 40 1011.6
20260504170313 69 321 9.0 14.0 0.00 0.00 0.00 38 1011.8
20260504160313 68 189 6.0 12.0 0.00 0.00 0.00 38 1012.4
20260504150812 65 236 1.0 11.0 0.00 0.00 0.00 32 1012.8
20260504150313 65 211 3.0 11.0 0.00 0.00 0.00 35 1012.8
20260504141313 63 344 4.0 8.0 0.00 0.00 0.00 40 1013.1
20260504140813 63 283 7.0 9.0 0.00 0.00 0.00 43 1013.1
20260504140313 62 271 2.0 9.0 0.00 0.00 0.00 40 1013.1
20260504130812 56 253 0.0 9.0 0.00 0.00 0.00 52 1013.6
20260504130313 56 290 2.0 9.0 0.00 0.00 0.00 50 1013.6